loading
|

SL-8 R/B, 3230

Orbit data source: Space-Track

SL-8 R/B, 3230 is space debris in LEO originally from a launch on Tue, 07 May 1968 UTC launched from the Plesetsk Missile And Space Complex (PKMTR). Debris objects in space refer to the collection of defunct objects orbiting the Earth. Examples of debris include non-operational satellites, rocket bodies, and fragments generated from explosions, collisions, or faulty payload assembly.

Loading next visibility...
Loading greatness...
SL-8 R/B details
Identifier
3230, 1968-040B
Orbit
LEO
Last TLE update9 hours ago
Origin
Flag of CISRVSN (CIS)
ManufacturerYuzhnoe
MissionSpacecraft
Bus & MotorS3, Unknown motor
Mass1,434 kg wet, 1,434 kg dry
Launch date (UTC)
1968-05-07 (56 years ago)
Launch vehicleUnknown
Launch site
Plesetsk Missile And Space Complex (PKMTR)
Object type
Payload
Rocket body
Debris
Shape & HBRCyl, 4.2 m
Radar Cross Section10.179 m², Large (>1 m²)

Expand to show TLE details & history

TLE from 9 hours ago
0 SL-8 R/B
1  3230U 68040B   24277.19143179  .00009753  00000-0  82856-3 0  9999
2  3230  74.0325 297.3166 0028234 260.9570  98.8420 14.97665720 32860
Epoch: 2024-10-03T04:35Z
Definitive object data (Epoch: 2024-10-03T04:35:39.706Z)
Latitude-0.00006°
Longitude-143.97885°
Altitude579.868 km
Speed7.569 km/s
True Right ascension19h 49m 15s
True Declination0° 00' 00"
Sunlit
Object was in daylight at TLE epoch
Predictive object data (real-time)
Latitude-27.629°
Longitude-153.34572°
Altitude577.801 km
Speed7.574 km/s
Apparent Right ascension19h 31m 14s
Apparent Declination-33° 27' 24"
Sunlit
Object is in daylight
Predictive observer data (real-time)
Local Sidereal Time07:55:44
Azimuth39.123° NE
Elevation-81.89°
Doppler factor1
Orbital elements
Apogee591.29 km
Perigee552.045 km
Semi-major axis6,949.804 km
Eccentricity0.0028234
Inclination74.0325°
RAAN297.3166°
Arg. of periapsis260.957°
True anomaly99.16152°
Mean anomaly98.842°
Eccentric anomaly99.00178°
Mean motion3.74614 °/min
BSTAR0.00082856
Period96.1 mins
No data available
Loading...
Other satellites on launch #40 in the year 1968 (1968-05-07 UTC)

SL-8 R/B Visibility forecast

Observer location: 39.9160978°, -105.1181434

SL-8 R/B is not visible in the next 10 days
Span
Click to sort rows by Start time (UTC) header in descending order
Start Az.
Max El. time (UTC)
Max El. Az.
Max El.
End time (UTC)
End Az.